星链-30434 (STARLINK-30434 )

导读

STARLINK-30434是美国SpaceX公司星链星座的成员卫星,于北京时间2023年9月16日发射入轨。它属于Starlink第二代低轨宽带通信卫星,采用平板构型设计,搭载氪工质霍尔推进器,支持自主轨道调整与避撞功能。作为星链全球互联网组网的组成部分,该卫星运行于近地轨道,通过Ku/Ka波段通信提供全球覆盖的宽带互联网接入服务,设计服役寿命约5-7年,退役后将受控离轨再入大气层销毁。

Basic Information
目录编号:
57875
目录名称:
STARLINK-30434
国际标识:
2023-144M
轨道中心:
EARTH
卫星名称:
星链-30434
卫星全名:
星链-30434 (STARLINK-30434 )
卫星状态:
在轨 (已飞行1084 天)
发射日期:
2023-09-16 UTC
国别 :
美国 (US)
星等 :
--
Orbit Information
数据来源 国际轨道数据 AOE轨道数据
星历时间 2026-09-03T23:57:31+0800
11小时前
查看轨道信息
2026-08-30T02:00:00+0800
5天前
查看轨道信息
半长轴 6861.196km 6861.188km
偏心率 0.0001295 0.0001507
轨道倾角 43.003° 43.002°
近地点辐角 270.648° 260.504°
升交点赤经 0.333° 28.090°
平近点角 89.422° 39.287°
近地点 482.17km 482.017km
远地点 483.948km 484.085km
周期 94.267分钟 94.267分钟
每日圈数 15.275769 15.275795
Detailed Information
固有亮度:
5
最大亮度:
0.3
卫星平台:
Starlink v2.0 mini
覆盖范围:
全球
运营商:
太空探索技术公司
运营商所在国:
美国
制造商(研发单位):
太空探索技术公司
制造商所在国:
美国
使用方式:
暂无
Satellite Introduction
星链(Starlink)计划是由太空探索技术公司(SpaceX)提出的一个巨型低轨卫星互联网星座项目,计划在2019年至2024年间在太空搭建由约1.2万颗卫星组成的“星链”网络,其中1584颗将部署在地球上空550千米处的近地轨道,并从2020年开始工作。该卫星仍在工作。
2D Orbit Map
3D Orbit Map
Orbit Altitude Analysis Chart
Orbit Inclination Analysis Chart
Orbit Comprehensive Analysis Chart
View Comprehensive Chart
Conjunction Data List
Event ID Objects TCA Miss Dist (km) Collision Risk Probability Collision Risk Index (CRI) Action
CDM_260905-065805-787506-696221
2026-09-05T
06:58:24+0000
0.247 km
中距离
5.067961E-4 高风险 0.89
CDM_260904-215205-787506-763421
2026-09-04T
21:52:32+0000
0.485 km
远距离
1.735043E-4 高风险 0.8
CDM_260904-201805-787506-763421
2026-09-04T
20:18:23+0000
1.862 km
极远距离
2.683268E-6 低风险 0.44
CDM_260905-052405-787506-696221
2026-09-05T
05:24:15+0000
1.923 km
极远距离
2.127632E-6 低风险 0.42
CDM_260905-083205-787506-696221
2026-09-05T
08:32:34+0000
1.943 km
极远距离
2.073198E-6 低风险 0.41
CDM_260904-232605-787506-763421
2026-09-04T
23:26:41+0000
2.534 km
极远距离
1.355345E-6 低风险 0.38
CDM_260903-163005-787506-323023
2026-09-03T
16:30:47+0000
2.958 km
极远距离
1.304753E-6 低风险 0.37
CDM_260905-120905-787506-633221
2026-09-05T
12:09:58+0000
2.942 km
极远距离
8.404763E-7 极低风险 0.33